TimeCDT,TemperatureF,Dew PointF,Humidity,Sea Level PressureIn,VisibilityMPH,Wind Direction,Wind SpeedMPH,Gust SpeedMPH,PrecipitationIn,Events,Conditions,WindDirDegrees,DateUTC
12:56 AM,86.0,68.9,56,29.92,10.0,SSE,16.1,24.2,N/A,,Clear,150,2013-06-28 05:56:00
1:56 AM,83.8,70.0,63,29.94,10.0,SSE,15.0,-,N/A,,Clear,160,2013-06-28 06:56:00
2:56 AM,81.9,70.9,69,29.96,10.0,SSE,11.5,-,N/A,,Clear,150,2013-06-28 07:56:00
3:56 AM,81.0,70.9,71,29.95,10.0,SE,9.2,-,N/A,,Clear,130,2013-06-28 08:56:00
4:56 AM,79.0,70.9,76,29.93,10.0,SE,8.1,-,N/A,,Clear,140,2013-06-28 09:56:00
5:56 AM,77.9,70.9,79,29.94,10.0,SE,9.2,-,N/A,,Clear,130,2013-06-28 10:56:00
6:56 AM,77.0,70.9,81,29.94,10.0,SE,6.9,-,N/A,,Clear,140,2013-06-28 11:56:00
7:56 AM,79.0,72.0,79,29.94,10.0,SSE,11.5,-,N/A,,Clear,160,2013-06-28 12:56:00
8:56 AM,82.9,72.0,69,29.94,10.0,South,11.5,-,N/A,,Clear,170,2013-06-28 13:56:00
9:56 AM,86.9,72.9,63,29.95,10.0,SSE,9.2,-,N/A,,Clear,160,2013-06-28 14:56:00
10:56 AM,88.9,72.0,57,29.95,10.0,South,4.6,-,N/A,,Clear,180,2013-06-28 15:56:00
11:56 AM,91.9,70.9,50,29.94,10.0,Calm,Calm,-,N/A,,Clear,0,2013-06-28 16:56:00
12:56 PM,93.9,68.0,43,29.93,10.0,Calm,Calm,-,N/A,,Partly Cloudy,0,2013-06-28 17:56:00
1:56 PM,97.9,63.9,33,29.91,10.0,East,10.4,-,N/A,,Clear,90,2013-06-28 18:56:00
2:56 PM,99.9,61.9,29,29.88,10.0,ENE,5.8,-,N/A,,Clear,70,2013-06-28 19:56:00
3:56 PM,100.9,61.0,27,29.85,-9999.0,Calm,Calm,-,N/A,,Clear,0,2013-06-28 20:56:00
4:56 PM,101.8,61.9,27,29.83,10.0,North,6.9,-,N/A,,Clear,10,2013-06-28 21:56:00
5:56 PM,104.0,59.0,23,29.81,10.0,ESE,5.8,-,N/A,,Clear,110,2013-06-28 22:56:00
6:56 PM,102.9,57.9,23,29.80,10.0,Calm,Calm,-,N/A,,Clear,0,2013-06-28 23:56:00
7:56 PM,101.8,57.9,23,29.80,10.0,East,4.6,-,N/A,,Clear,90,2013-06-29 00:56:00
8:56 PM,99.0,56.8,25,29.81,10.0,ESE,6.9,-,N/A,,Clear,120,2013-06-29 01:56:00
9:56 PM,95.9,57.9,28,29.82,10.0,Calm,Calm,-,N/A,,Clear,0,2013-06-29 02:56:00
10:56 PM,91.9,59.0,33,29.84,10.0,East,4.6,-,N/A,,Clear,90,2013-06-29 03:56:00
11:56 PM,90.0,63.0,40,29.84,10.0,ESE,6.9,-,N/A,,Clear,120,2013-06-29 04:56:00